Location: Les Jeannots
(43.2262°N, 5.5774°E)
Time: 08:11:50
(UTC+00:00)

ATLAS 5 CENTAUR R/B - Pass Details

Date: 05 July 2020
Orbit: 534 x 1124 km, 63.4° (Epoch: 30 July)

Event Time Altitude Azimuth Distance (km) Brightness Sun altitude
Rises 21:04:04 0° 232° (SW) 2,695 4.9 -14.7°
Reaches altitude 10° 21:06:14 10° 239° (WSW) 1,838 4.1 -15.0°
Maximum altitude 21:10:10 45° 313° (NW) 820 2.7 -15.4°
Drops below altitude 10° 21:14:35 10° 27° (NNE) 2,068 4.6 -15.9°
Sets 21:17:10 0° 33° (NNE) 3,078 5.4 -16.1°
